Regional Weather Roundup
Issued by NWS Cleveland, OH

Home | Current Version | Previous Version | Graphics & Text | Print | Product List | Glossary On
Versions: 1 2 3 4 5 6 7 8 9 10 11 12 13 14 15 16 17 18 19 20 21 22 23 24 25 26 27 28 29 30 31 32 33 34 35 36 37 38 39 40 41 42 43 44 45 46 47 48 49 50
173
ASUS41 KCLE 250302
RWRCLE
OHIO REGIONAL WEATHER ROUNDUP
NATIONAL WEATHER SERVICE CLEVELAND, OH
1100 PM EDT SAT SEP 24 2016

NOTE: "FAIR" INDICATES FEW OR NO CLOUDS BELOW 12,000 FEET WITH NO
SIGNIFICANT WEATHER AND/OR OBSTRUCTIONS TO VISIBILITY.

OHZ001>008-015>018-024>027-034-035-043-044-250400-
   NORTHWEST OHIO

CITY           SKY/WX    TMP DP  RH WIND       PRES   REMARKS
DEFIANCE       CLEAR     61  52  72 E6        30.19S
FINDLAY        CLEAR     62  51  67 E8        30.18S
TOLEDO EXPRESS CLEAR     56  55  97 CALM      30.20R
TOLEDO EXEC    CLEAR     59  54  83 CALM      30.20F
LIMA           CLEAR     60  54  80 E8        30.18S
$$

OHZ009>014-019>023-028>033-038-089-250400-
   NORTHEAST OHIO

CITY           SKY/WX    TMP DP  RH WIND       PRES   REMARKS
CLE-HOPKINS    CLEAR     60  45  57 E8        30.23S
CLE-LAKEFRONT  CLEAR     61  46  57 E8        30.21S
CUY CO. ARPT   CLEAR     57  50  77 E6        30.22F
LORAIN-ELYRIA  CLEAR     54  46  74 E5        30.21S
ASHTABULA      CLEAR     49  47  93 E5        30.23F
AKRON-CANTON   CLEAR     55  46  71 NE7       30.20F
WOOSTER        CLEAR     55  49  80 NE7       30.20F
MANSFIELD      CLEAR     56  51  84 NE7       30.19F
YOUNGSTOWN     CLEAR     53  47  79 NE8       30.21S
$$

OHZ042-051>053-060>062-070>072-077>081-250400-
  SOUTHWEST OHIO

CITY           SKY/WX    TMP DP  RH WIND       PRES   REMARKS
CINC-COVINGTON CLEAR     73  66  78 E5        30.12S
CINC-LUNKEN    CLEAR     68  68 100 CALM      30.12S FOG
HAMILTON       CLEAR     65  63  93 CALM      30.13S
DAYTON         CLEAR     65  58  78 NE9       30.16S
WRIGHT-PAT AFB CLEAR     66  60  79 NE10      30.14S
DAYTON GENERAL CLEAR     69  58  67 E9        30.13S
WILMINGTON     CLEAR     65  61  87 NE7       30.14S
$$

OHZ036-037-039>041-045>050-054>059-063>069-073>076-082>088-250400-
  CENTRAL AND SOUTHEAST OHIO

CITY           SKY/WX    TMP DP  RH WIND       PRES   REMARKS
COLUMBUS       CLEAR     65  57  75 NE7       30.15S
OSU AIRPORT    CLEAR     64  56  75 NE7       30.16S
BOLTON FIELD   NOT AVBL
RICKENBACK AFB CLEAR     64  58  82 NE9       30.15S
NEWARK         CLEAR     64  54  69 NE5       30.16S
MARION         CLEAR     58  52  80 NE7       30.18F
LANCASTER      CLEAR     64  57  78 N5        30.15S
ZANESVILLE     CLEAR     62  53  72 CALM      30.16S
NEW PHILLY     CLEAR     60  50  69 VRB5      30.19S
$$




USA.gov is the U.S. government's official web portal to all federal, state and local government web resources and services.